DELTA 1 DEB, 7129

Orbit data source: Space-Track

DELTA 1 DEB, 7129 is space debris in SSO originally from a launch on Tue, 06 Nov 1973 UTC launched from the Air Force Western Test Range (AFWTR). Debris objects in space refer to the collection of defunct objects orbiting the Earth. Examples of debris include non-operational satellites, rocket bodies, and fragments generated from explosions, collisions, or faulty payload assembly.

Loading next visibility...
Identifier
7129, 1973-086CT
Orbit
SSO
Country
Flag of USUS
Related business
Manufacturer
Unknown
Mission
Spacecraft
Bus & Motor
Unknown
Mass
Unknown
Launch date (UTC)
1973-11-06 (52 years ago)
Launch vehicle
Unknown
Launch site
Air Force Western Test Range (AFWTR)
Object type
Payload
Rocket body
Debris
Shape & HBR
Unknown shape, 0.2 m
Radar Cross Section
Small (<0.1 m²)

Expand to show TLE details & history
Last TLE update: 13 hours ago

TLE from 13 hours ago
0 DELTA 1 DEB
1  7129U 73086CT  25299.87273654  .00000036  00000-0  81010-3 0  9994
2  7129 102.0466 168.9475 0253849  21.8644 350.4988 12.04521880279260
Epoch: 2025-10-26T20:56Z
TLE epoch observation values (Epoch: 2025-10-26T20:56:44.437Z)
Latitude
11.564°
Longitude
176.78932°
Altitude
1,461.281 km
Speed
7.221 km/s
True Right ascension
11h 05m 49s
True Declination
11° 30' 10"
Sunlit
Object was in daylight at epoch
Visualization orbit readout
Latitude
Unknown
Longitude
Unknown
Altitude
Unknown
Speed
Unknown
Apparent Right ascension
Unknown
Apparent Declination
Unknown
Sunlit
N/A
Visualization observer readout
Local Sidereal Time
05:49:48
Azimuth
Unknown
Elevation
Unknown
Doppler factor
Unknown
Orbital elements
Apogee altitude
1,862.304 km
Perigee altitude
1,454.296 km
Semi-major axis
8,036.437 km
Eccentricity
0.02538
Inclination
102.0466°
RAAN
168.9475°
Arg. of periapsis
21.8644°
True anomaly
350.00315°
Mean anomaly
350.4988°
Eccentric anomaly
350.25255°
Mean motion
3.01264 °/min
Orbital period
119.5 mins
BSTAR
0.0008101
Loading maneuver chart data...
Computing Atmospheric mass density...
Loading historical data...
Loading historical data...
Loading historical data...
Loading historical data...
Loading historical data...
Loading historical data...
Loading historical data...

Documentation

Showing up to 5 results
|